Weather History for Burnet, TX

Change the Weather History Date:

Sunday, March 18, 2012

  Actual Average Record
Temperature  
Mean Temperature 68 °F -  
Max Temperature 73 °F 66 °F 84 °F (2014)
Min Temperature 64 °F 46 °F 39 °F (2001)
Cooling Degree Days 4    
Growing Degree Days 18 (Base 50)    
Moisture  
Dew Point 62 °F    
Average Humidity 80    
Maximum Humidity 88    
Minimum Humidity 68    
Precipitation  
Precipitation 0.00 in - - ()
Sea Level Pressure  
Sea Level Pressure 29.92 in    
Wind  
Wind Speed 10 mph (SSE)    
Max Wind Speed 20 mph    
Max Gust Speed 32 mph    
Visibility 10 miles    
Events Rain    
Averages and records for this station are not official NWS values.
T = Trace of Precipitation, MM = Missing Value Source: NWS Daily Summary

Daily Weather History Graph

Daily Weather History Graph

Search for Another Location

Airport:

Trip Planner

Search our weather history database for the weather conditions in past years. The results will help you decide how hot, cold, wet, or windy it might be!

Date:

Astronomy

Mar. 18, 2012 Rise Set
Actual Time 7:38 AM CDT 7:43 PM CDT
Civil Twilight 7:14 AM CDT 8:07 PM CDT
Nautical Twilight 6:46 AM CDT 8:35 PM CDT
Astronomical Twilight 6:18 AM CDT 9:03 PM CDT
Moon 5:04 AM CDT (3/18) 4:24 PM CDT (3/18)
Length of Visible Light 12h 53m
Length of Day
12h 04m
Waning Crescent, 15% of the Moon is Illuminated
Mar 18
Waning Crescent
Mar 22
New
Mar 30
First Quarter
Apr 6
Full
Apr 13
Last Quarter

Hourly Weather History & Observations

Time (CDT) Temp. Dew Point Humidity Pressure Visibility Wind Dir Wind Speed Gust Speed Precip Events Conditions
12:53 AM 68.0 °F 62.1 °F 81% 29.98 in 10.0 mi SSE 9.2 mph 21.9 mph N/A   Overcast
1:53 AM 66.9 °F 61.0 °F 81% 29.96 in 10.0 mi South 11.5 mph 19.6 mph N/A   Mostly Cloudy
2:53 AM 66.9 °F 61.0 °F 81% 29.94 in 10.0 mi SSE 11.5 mph 19.6 mph N/A   Overcast
3:53 AM 64.9 °F 61.0 °F 87% 29.92 in 10.0 mi SSE 8.1 mph - N/A   Mostly Cloudy
4:03 AM 64.4 °F 60.8 °F 88% 29.95 in 10.0 mi SSE 8.1 mph - N/A   Scattered Clouds
4:35 AM 64.4 °F 60.8 °F 88% 29.95 in 10.0 mi South 8.1 mph - N/A   Mostly Cloudy
4:53 AM 64.9 °F 61.0 °F 87% 29.91 in 10.0 mi South 6.9 mph 16.1 mph N/A   Overcast
5:53 AM 64.9 °F 61.0 °F 87% 29.92 in 10.0 mi SSE 8.1 mph - N/A   Overcast
6:53 AM 66.0 °F 62.1 °F 87% 29.93 in 10.0 mi South 5.8 mph - N/A   Overcast
7:01 AM 66.2 °F 62.6 °F 88% 29.97 in 10.0 mi South 5.8 mph - N/A   Overcast
7:24 AM 66.2 °F 62.6 °F 88% 29.97 in 10.0 mi South 9.2 mph - N/A   Overcast
7:53 AM 66.0 °F 62.1 °F 87% 29.93 in 9.0 mi South 6.9 mph - N/A   Overcast
8:27 AM 66.2 °F 62.6 °F 88% 29.97 in 9.0 mi South 9.2 mph - N/A   Scattered Clouds
8:53 AM 66.9 °F 62.1 °F 84% 29.94 in 9.0 mi South 9.2 mph 17.3 mph N/A   Scattered Clouds
9:51 AM 68.0 °F 62.6 °F 83% 29.99 in 10.0 mi South 12.7 mph 19.6 mph N/A   Mostly Cloudy
9:53 AM 68.0 °F 63.0 °F 84% 29.95 in 10.0 mi SSE 15.0 mph 23.0 mph N/A   Mostly Cloudy
10:22 AM 69.8 °F 62.6 °F 78% 30.01 in 9.0 mi South 15.0 mph 23.0 mph N/A   Overcast
10:53 AM 70.0 °F 63.0 °F 78% 29.96 in 10.0 mi South 13.8 mph 25.3 mph N/A   Mostly Cloudy
11:53 AM 72.0 °F 62.1 °F 71% 29.96 in 10.0 mi South 17.3 mph 25.3 mph N/A   Mostly Cloudy
12:53 PM 73.0 °F 62.1 °F 68% 29.95 in 10.0 mi South 12.7 mph 27.6 mph N/A   Mostly Cloudy
1:07 PM 73.4 °F 62.6 °F 69% 29.98 in 10.0 mi South 16.1 mph 29.9 mph N/A   Mostly Cloudy
1:53 PM 72.0 °F 62.1 °F 71% 29.92 in 10.0 mi South 19.6 mph 32.2 mph 0.00 in   Mostly Cloudy
2:34 PM 71.6 °F 62.6 °F 73% 29.94 in 6.0 mi SSW 10.4 mph 20.7 mph 0.00 in Rain Light Rain
2:53 PM 72.0 °F 64.0 °F 76% 29.90 in 9.0 mi South 15.0 mph 21.9 mph 0.00 in   Scattered Clouds
3:53 PM 73.0 °F 63.0 °F 71% 29.88 in 9.0 mi SSE 9.2 mph 21.9 mph 0.00 in   Scattered Clouds
5:53 PM 72.0 °F 64.0 °F 76% 29.85 in 8.0 mi SE 13.8 mph 24.2 mph N/A   Overcast
6:53 PM 72.0 °F 64.0 °F 76% 29.84 in 9.0 mi SE 10.4 mph 23.0 mph N/A   Overcast
7:53 PM 71.1 °F 63.0 °F 75% 29.84 in 10.0 mi SSE 9.2 mph 20.7 mph N/A   Unknown
8:09 PM 69.8 °F 62.6 °F 78% 29.88 in 10.0 mi SSE 13.8 mph 25.3 mph N/A   Overcast
8:53 PM 70.0 °F 63.0 °F 78% 29.85 in 10.0 mi SSE 12.7 mph 23.0 mph N/A   Overcast
9:53 PM 69.1 °F 62.1 °F 78% 29.84 in 10.0 mi SSE 13.8 mph 25.3 mph N/A   Partly Cloudy
10:37 PM 68.0 °F 62.6 °F 83% 29.88 in 10.0 mi SSE 11.5 mph 27.6 mph N/A   Mostly Cloudy
10:53 PM 68.0 °F 63.0 °F 84% 29.84 in 10.0 mi SSE 10.4 mph 25.3 mph N/A   Mostly Cloudy
11:53 PM 69.1 °F 63.0 °F 81% 29.86 in 9.0 mi South 10.4 mph 23.0 mph N/A   Overcast